Minneapolis Crystal, MN

3:30 AM CST on November 19, 2017 (GMT -0600)
Crystal

Weather History for KMIC - September, 2014

Change the Weather History Date:

Tuesday, September 2, 2014

  Actual Average Record
Temperature  
Mean Temperature 70 °F -  
Max Temperature 79 °F 77 °F 90 °F (2004)
Min Temperature 62 °F 55 °F 45 °F (1998)
Cooling Degree Days 6    
Growing Degree Days 20 (Base 50)    
Moisture  
Dew Point 54 °F    
Average Humidity 61    
Maximum Humidity 86    
Minimum Humidity 35    
Precipitation  
Precipitation 0.00 in - - ()
Sea Level Pressure  
Sea Level Pressure 29.84 in    
Wind  
Wind Speed 5 mph (WSW)    
Max Wind Speed 14 mph    
Max Gust Speed 17 mph    
Visibility 10 miles    
Events      
Averages and records for this station are not official NWS values.
T = Trace of Precipitation, MM = Missing Value Source: NWS Daily Summary

Daily Weather History Graph

Daily Weather History Graph

Search for Another Location

Airport or City:

Trip Planner

Search our weather history database for the weather conditions in past years. The results will help you decide how hot, cold, wet, or windy it might be!

Date:

Astronomy

Sep. 02, 2014 Rise Set
Actual Time 6:36 AM CDT 7:48 PM CDT
Civil Twilight 6:06 AM CDT 8:18 PM CDT
Nautical Twilight 5:29 AM CDT 8:55 PM CDT
Astronomical Twilight 4:51 AM CDT 9:33 PM CDT
Moon 2:40 PM CDT (9/2) No Moon Set
Length of Visible Light 14h 12m
Length of Day
13h 12m
First Quarter, 53% of the Moon is Illuminated
Sep 2
First Quarter
Sep 8
Full
Sep 15
Last Quarter
Sep 24
New
Oct 1
First Quarter

Hourly Weather History & Observations

Time (CDT) Temp. Dew Point Humidity Pressure Visibility Wind Dir Wind Speed Gust Speed Precip Events Conditions
12:53 AM 64.9 °F 57.9 °F 78% 29.80 in 10.0 mi WNW 4.6 mph - N/A   Mostly Cloudy
1:53 AM 62.1 °F 57.9 °F 86% 29.79 in 10.0 mi Calm Calm - N/A   Mostly Cloudy
2:53 AM 62.1 °F 57.0 °F 84% 29.79 in 10.0 mi South 3.5 mph - N/A   Mostly Cloudy
3:53 AM 64.0 °F 57.9 °F 80% 29.81 in 10.0 mi WSW 6.9 mph - N/A   Clear
4:53 AM 64.0 °F 57.9 °F 80% 29.81 in 10.0 mi West 5.8 mph - N/A   Clear
5:53 AM 63.0 °F 57.0 °F 81% 29.82 in 10.0 mi West 3.5 mph - N/A   Clear
6:53 AM 62.1 °F 55.9 °F 80% 29.84 in 10.0 mi SW 3.5 mph - N/A   Clear
7:53 AM 63.0 °F 57.0 °F 81% 29.86 in 10.0 mi WSW 6.9 mph - N/A   Clear
8:53 AM 66.0 °F 57.0 °F 73% 29.86 in 10.0 mi West 5.8 mph - N/A   Clear
9:53 AM 68.0 °F 55.9 °F 65% 29.88 in 10.0 mi Variable 3.5 mph - N/A   Clear
10:53 AM 72.0 °F 55.9 °F 57% 29.88 in 10.0 mi Variable 3.5 mph - N/A   Clear
11:53 AM 73.9 °F 51.1 °F 45% 29.88 in 10.0 mi West 6.9 mph - N/A   Clear
12:53 PM 75.9 °F 51.1 °F 42% 29.87 in 10.0 mi West 8.1 mph - N/A   Clear
1:53 PM 77.0 °F 51.1 °F 40% 29.87 in 10.0 mi WSW 6.9 mph - N/A   Clear
2:53 PM 78.1 °F 48.0 °F 35% 29.87 in 10.0 mi West 13.8 mph 17.3 mph N/A   Clear
3:53 PM 78.1 °F 48.0 °F 35% 29.86 in 10.0 mi WSW 11.5 mph - 0.00 in   Clear
4:53 PM 79.0 °F 50.0 °F 36% 29.86 in 10.0 mi WSW 9.2 mph - N/A   Clear
5:53 PM 77.0 °F 50.0 °F 39% 29.86 in 10.0 mi SW 12.7 mph - N/A   Clear
6:53 PM 75.9 °F 52.0 °F 43% 29.84 in 10.0 mi SW 8.1 mph - N/A   Clear
7:53 PM 73.9 °F 52.0 °F 46% 29.84 in 10.0 mi SSW 5.8 mph - N/A   Clear
8:53 PM 70.0 °F 54.0 °F 57% 29.85 in 10.0 mi South 4.6 mph - N/A   Clear
10:53 PM 68.0 °F 55.9 °F 65% 29.84 in 10.0 mi SW 4.6 mph - N/A   Clear
11:53 PM 66.9 °F 55.9 °F 68% 29.85 in 10.0 mi SSW 4.6 mph - N/A   Clear